Home > Weather > Mason > Past weeks

Flag for USA Past Weather in Mason, Ohio, USA — Yesterday and Last 2 Weeks

Now
77 °F

Passing clouds.


Feels Like: 79 °F
Forecast: 72 / 82 °F
Wind: No wind

Location: Butler County Regional Airport

Current Time: Jul 26, 2016 at 8:28:54 AM

Latest Report: Jul 26, 2016 at 7:53 AM


Visibility: 10 mi

Pressure: 30.03 "Hg

Humidity: 74%

Dew Point: 68 °F

Location of MasonLocation

Past Weather in Mason — Graph

°F

Mason Temperature Yesterday

Maximum temperature yesterday: 93 °F (at 2:53 PM)
Minimum temperature yesterday: 76 °F (at 4:53 AM)
Average temperature yesterday: 84 °F

High & Low Weather Summary for the Past Weeks

 TemperatureHumidityPressure
High94 °F (Jul 24, 1:53 PM)97% (Jul 15, 3:53 AM)30.27 "Hg (Jul 15, 3:53 AM)
Low59 °F (Jul 17, 5:53 AM)41% (Jul 11, 3:53 PM)29.90 "Hg (Jul 14, 4:53 PM)
Average79 °F73%30.05 "Hg
* Reported Jul 11 6:53 AM — Jul 26 6:53 AM, Mason, Weather by CustomWeather, © 2016

Note: Actual official high and low records may vary slightly from our data, if they occured in-between our weather recording intervals... More about our weather records

Advertising

Mason Weather History for the Previous 24 Hours

Scroll right to see more
 ConditionsComfort  
Time TempWeatherWind HumidityBarometerVisibility
6:53 AM
Tue, Jul 26
76 °FMostly cloudy.No wind77%30.03 "Hg10 mi
5:53 AM74 °FPassing clouds.No wind82%30.01 "Hg10 mi
4:53 AM74 °FPassing clouds.No wind85%30.00 "Hg10 mi
3:53 AM76 °FClear.No wind85%30.00 "Hg10 mi
2:53 AM78 °FClear.No wind79%29.99 "Hg10 mi
1:53 AM77 °FClear.No wind85%29.99 "Hg10 mi
12:53 AM75 °FClear.No wind90%29.98 "Hg10 mi
11:53 PM
Mon, Jul 25
76 °FClear.No wind88%29.98 "Hg10 mi
10:53 PM78 °FClear.No wind79%29.98 "Hg10 mi
9:53 PM79 °FSunny.3 mph77%29.98 "Hg10 mi
8:53 PM83 °FSunny.5 mph65%29.97 "Hg10 mi
7:53 PM87 °FSunny.8 mph55%29.96 "Hg10 mi
6:53 PM89 °FSunny.7 mph52%29.95 "Hg10 mi
5:53 PM92 °FSunny.8 mph44%29.95 "Hg10 mi
4:53 PM93 °FSunny.13 mph46%29.95 "Hg10 mi
3:53 PM93 °FSunny.9 mph42%29.96 "Hg10 mi
2:53 PM93 °FSunny.9 mph47%29.97 "Hg10 mi
1:53 PM90 °FBroken clouds.13 mph56%29.98 "Hg10 mi
12:53 PM90 °FPassing clouds.8 mph59%30.00 "Hg10 mi
11:53 AM88 °FScattered clouds.8 mph63%30.00 "Hg10 mi
10:53 AM87 °FSunny.7 mph65%30.00 "Hg10 mi
9:53 AM85 °FSunny.6 mph72%29.98 "Hg9 mi
8:53 AM82 °FSunny.6 mph79%29.98 "Hg8 mi
Weather by CustomWeather, © 2016

See weather overviewHow to use our weather pages